When you browse on this site, cookies collect data to enhance your experience and personalize the content and advertising you see.
Visit our Privacy Policy to learn more. By continuing to use the site, you agree to this use of cookies and data.
  • In Deutschland
  • Länderverzeichnis
  • Für 7 Tage
  • Wassertemperatur
  • Wetterkarte
  • Widgets
  • user-avatar
    Anmelden

    Stündliche Wetter Quito

    Heute, 22 August, Donnerstag

    Zeit Temperatur Niederschläge Wind Luftdruck Luftfeuchtigkeit
    00:00 +13°C° 0 mm 2 m/S 623 mmHg 33%
    01:00 +13°C° 0 mm 2 m/S 623 mmHg 34%
    02:00 +12°C° 0 mm 1 m/S 623 mmHg 37%
    03:00 +12°C° 0 mm 1 m/S 623 mmHg 39%
    04:00 +11°C° 0 mm 1 m/S 623 mmHg 41%
    05:00 +12°C° 0 mm 1 m/S 623 mmHg 40%
    06:00 +13°C° 0 mm 1 m/S 624 mmHg 39%
    07:00 +15°C° 0 mm 1 m/S 625 mmHg 36%
    08:00 +17°C° 0 mm 3 m/S 626 mmHg 31%
    09:00 +20°C° 0 mm 4 m/S 626 mmHg 26%
    10:00 +23°C° 0 mm 5 m/S 627 mmHg 21%
    11:00 +26°C° 0 mm 4 m/S 627 mmHg 19%
    12:00 +27°C° 0 mm 4 m/S 626 mmHg 17%
    13:00 +28°C° 0 mm 3 m/S 627 mmHg 15%
    14:00 +28°C° 0 mm 3 m/S 626 mmHg 14%
    15:00 +28°C° 0 mm 3 m/S 625 mmHg 14%
    16:00 +28°C° 0 mm 3 m/S 625 mmHg 13%
    17:00 +25°C° 0 mm 3 m/S 624 mmHg 18%
    18:00 +21°C° 0 mm 2 m/S 624 mmHg 22%
    19:00 +17°C° 0 mm 2 m/S 623 mmHg 26%
    20:00 +16°C° 0 mm 2 m/S 624 mmHg 28%
    21:00 +15°C° 0 mm 2 m/S 624 mmHg 29%
    22:00 +15°C° 0 mm 2 m/S 624 mmHg 30%
    23:00 +14°C° 0 mm 2 m/S 624 mmHg 34%

    Morgen, 23 August, Freitag

    Zeit Temperatur Niederschläge Wind Luftdruck Luftfeuchtigkeit
    00:00 +13°C° 0 mm 2 m/S 624 mmHg 38%
    01:00 +12°C° 0 mm 2 m/S 623 mmHg 43%
    02:00 +12°C° 0 mm 2 m/S 623 mmHg 46%
    03:00 +10°C° 0 mm 2 m/S 623 mmHg 49%
    04:00 +9°C° 0 mm 2 m/S 622 mmHg 52%
    05:00 +10°C° 0 mm 2 m/S 623 mmHg 52%
    06:00 +11°C° 0 mm 3 m/S 624 mmHg 51%
    07:00 +11°C° 0 mm 3 m/S 625 mmHg 51%
    08:00 +14°C° 0 mm 3 m/S 626 mmHg 44%
    09:00 +18°C° 0 mm 4 m/S 626 mmHg 37%
    10:00 +21°C° 0 mm 4 m/S 627 mmHg 30%
    11:00 +23°C° 0 mm 4 m/S 627 mmHg 25%
    12:00 +26°C° 0 mm 3 m/S 627 mmHg 21%
    13:00 +28°C° 0 mm 3 m/S 627 mmHg 17%
    14:00 +28°C° 0 mm 3 m/S 626 mmHg 16%
    15:00 +28°C° 0 mm 3 m/S 625 mmHg 16%
    16:00 +28°C° 0 mm 3 m/S 625 mmHg 16%
    17:00 +25°C° 0 mm 2 m/S 624 mmHg 20%
    18:00 +21°C° 0 mm 2 m/S 624 mmHg 24%
    19:00 +18°C° 0 mm 2 m/S 623 mmHg 28%
    20:00 +17°C° 0 mm 2 m/S 623 mmHg 31%
    21:00 +16°C° 0 mm 2 m/S 624 mmHg 33%
    22:00 +15°C° 0 mm 2 m/S 624 mmHg 35%
    23:00 +14°C° 0 mm 2 m/S 624 mmHg 36%

    übermorgen, 24 August, Samstag

    Zeit Temperatur Niederschläge Wind Luftdruck Luftfeuchtigkeit
    00:00 +13°C° 0 mm 2 m/S 623 mmHg 37%
    01:00 +12°C° 0 mm 2 m/S 623 mmHg 38%
    02:00 +12°C° 0 mm 2 m/S 623 mmHg 40%
    03:00 +10°C° 0 mm 2 m/S 622 mmHg 42%
    04:00 +10°C° 0 mm 2 m/S 622 mmHg 43%
    05:00 +10°C° 0 mm 2 m/S 623 mmHg 42%
    06:00 +12°C° 0 mm 2 m/S 623 mmHg 41%
    07:00 +13°C° 0 mm 2 m/S 624 mmHg 40%
    08:00 +16°C° 0 mm 3 m/S 625 mmHg 33%
    09:00 +19°C° 0 mm 4 m/S 626 mmHg 26%
    10:00 +23°C° 0 mm 5 m/S 627 mmHg 19%
    11:00 +26°C° 0 mm 4 m/S 627 mmHg 17%
    12:00 +27°C° 0 mm 3 m/S 626 mmHg 14%
    13:00 +29°C° 0 mm 3 m/S 626 mmHg 12%
    14:00 +29°C° 0 mm 3 m/S 625 mmHg 12%
    15:00 +29°C° 0 mm 3 m/S 625 mmHg 11%
    16:00 +29°C° 0 mm 3 m/S 624 mmHg 11%
    17:00 +25°C° 0 mm 2 m/S 623 mmHg 15%
    18:00 +21°C° 0 mm 2 m/S 623 mmHg 18%
    19:00 +18°C° 0 mm 1 m/S 622 mmHg 22%
    20:00 +18°C° 0 mm 1 m/S 622 mmHg 22%
    21:00 +16°C° 0 mm 1 m/S 623 mmHg 23%
    22:00 +15°C° 0 mm 1 m/S 623 mmHg 24%
    23:00 +14°C° 0 mm 1 m/S 623 mmHg 26%

    25 August, Sonntag

    Zeit Temperatur Niederschläge Wind Luftdruck Luftfeuchtigkeit
    00:00 +14°C° 0 mm 2 m/S 622 mmHg 28%
    01:00 +13°C° 0 mm 2 m/S 622 mmHg 30%
    02:00 +12°C° 0 mm 2 m/S 622 mmHg 30%
    03:00 +12°C° 0 mm 2 m/S 622 mmHg 31%
    04:00 +10°C° 0 mm 2 m/S 622 mmHg 31%
    05:00 +12°C° 0 mm 2 m/S 622 mmHg 30%
    06:00 +13°C° 0 mm 2 m/S 623 mmHg 29%
    07:00 +13°C° 0 mm 2 m/S 624 mmHg 28%
    08:00 +17°C° 0 mm 2 m/S 624 mmHg 24%
    09:00 +21°C° 0 mm 3 m/S 625 mmHg 19%
    10:00 +25°C° 0 mm 4 m/S 626 mmHg 15%
    11:00 +27°C° 0 mm 3 m/S 626 mmHg 13%
    12:00 +29°C° 0 mm 2 m/S 626 mmHg 12%
    13:00 +31°C° 0 mm 2 m/S 625 mmHg 11%
    14:00 +31°C° 0 mm 1 m/S 625 mmHg 11%
    15:00 +30°C° 0 mm 1 m/S 624 mmHg 11%
    16:00 +30°C° 0 mm 1 m/S 624 mmHg 10%
    17:00 +27°C° 0 mm 1 m/S 623 mmHg 13%
    18:00 +24°C° 0 mm 1 m/S 622 mmHg 15%
    19:00 +20°C° 0 mm 1 m/S 622 mmHg 17%
    20:00 +19°C° 0 mm 1 m/S 622 mmHg 19%
    21:00 +18°C° 0 mm 1 m/S 622 mmHg 20%
    22:00 +15°C° 0 mm 0 m/S 622 mmHg 21%
    23:00 +16°C° 0 mm 1 m/S 622 mmHg 22%

    26 August, Montag

    Zeit Temperatur Niederschläge Wind Luftdruck Luftfeuchtigkeit
    00:00 +15°C° 0 mm 1 m/S 622 mmHg 22%
    01:00 +15°C° 0 mm 1 m/S 622 mmHg 23%
    02:00 +14°C° 0 mm 1 m/S 622 mmHg 25%
    03:00 +13°C° 0 mm 2 m/S 622 mmHg 27%
    04:00 +12°C° 0 mm 2 m/S 621 mmHg 29%
    05:00 +13°C° 0 mm 1 m/S 622 mmHg 28%
    06:00 +14°C° 0 mm 1 m/S 623 mmHg 26%
    07:00 +15°C° 0 mm 1 m/S 624 mmHg 25%
    08:00 +19°C° 0 mm 2 m/S 625 mmHg 22%
    09:00 +22°C° 0 mm 3 m/S 626 mmHg 18%
    10:00 +27°C° 0 mm 3 m/S 626 mmHg 15%
    11:00 +28°C° 0 mm 3 m/S 626 mmHg 14%
    12:00 +29°C° 0 mm 3 m/S 625 mmHg 13%
    13:00 +31°C° 0 mm 3 m/S 625 mmHg 12%
    14:00 +30°C° 0 mm 3 m/S 624 mmHg 12%
    15:00 +30°C° 0 mm 3 m/S 624 mmHg 12%
    16:00 +30°C° 0 mm 2 m/S 623 mmHg 12%
    17:00 +27°C° 0 mm 2 m/S 623 mmHg 16%
    18:00 +24°C° 0 mm 1 m/S 623 mmHg 19%
    19:00 +21°C° 0 mm 1 m/S 622 mmHg 22%
    20:00 +20°C° 0 mm 1 m/S 622 mmHg 23%
    21:00 +20°C° 0 mm 1 m/S 623 mmHg 23%
    22:00 +19°C° 0 mm 1 m/S 623 mmHg 24%
    23:00 +18°C° 0 mm 1 m/S 623 mmHg 27%

    27 August, Dienstag

    Zeit Temperatur Niederschläge Wind Luftdruck Luftfeuchtigkeit
    00:00 +16°C° 0 mm 1 m/S 622 mmHg 29%
    01:00 +15°C° 0 mm 1 m/S 622 mmHg 32%
    02:00 +14°C° 0 mm 2 m/S 622 mmHg 36%
    03:00 +14°C° 0 mm 2 m/S 622 mmHg 39%
    04:00 +14°C° 0 mm 2 m/S 622 mmHg 43%
    05:00 +14°C° 0 mm 2 m/S 623 mmHg 45%
    06:00 +14°C° 0 mm 2 m/S 623 mmHg 48%
    07:00 +15°C° 0 mm 2 m/S 624 mmHg 50%
    08:00 +21°C° 0 mm 1 m/S 625 mmHg 38%
    09:00 +27°C° 0 mm 1 m/S 627 mmHg 27%
    10:00 +31°C° 0 mm 0 m/S 629 mmHg 15%
    11:00 +33°C° 0 mm 1 m/S 628 mmHg 15%
    12:00 +34°C° 0 mm 2 m/S 627 mmHg 15%
    13:00 +34°C° 0 mm 2 m/S 626 mmHg 15%
    14:00 +32°C° 0 mm 2 m/S 625 mmHg 16%
    15:00 +31°C° 0 mm 2 m/S 624 mmHg 17%
    16:00 +30°C° 0 mm 2 m/S 624 mmHg 17%
    17:00 +28°C° 0 mm 2 m/S 623 mmHg 21%
    18:00 +25°C° 0 mm 2 m/S 623 mmHg 26%
    19:00 +22°C° 0 mm 1 m/S 622 mmHg 30%
    20:00 +21°C° 0 mm 1 m/S 623 mmHg 31%
    21:00 +21°C° 0 mm 1 m/S 623 mmHg 32%
    22:00 +20°C° 0 mm 1 m/S 623 mmHg 34%
    23:00 +19°C° 0 mm 1 m/S 623 mmHg 36%
    Mehr zeigen